Location: Chillicothe
(39.7950°N, 93.5520°W)
Time: 05:23:59
(UTC-05:00)

Vanguard 2 Rocket - Visible Passes

Search period start: 23 October 2019 00:00
Search period end: 02 November 2019 00:00
Orbit: 553 x 3327 km, 32.9° (Epoch: 22 October)

Date Brightness Start Highest point End Pass type
(mag) Time Alt. Az. Time Alt. Az. Time Alt. Az.
23 Oct 10.7 06:23:29 10° SSE 06:32:10 19° SE 06:42:59 10° E visible
25 Oct 10.4 06:34:47 10° S 06:44:55 27° SE 06:58:44 10° E visible
26 Oct 10.5 05:38:05 10° SSE 05:45:05 17° SE 05:53:56 10° E visible
27 Oct 10.1 06:47:10 10° SSW 06:57:50 36° SE 07:13:30 10° E visible
28 Oct 10.1 05:49:23 10° S 05:57:51 25° SE 06:09:50 10° E visible
29 Oct 10.2 04:53:12 10° SSE 04:58:23 15° SE 05:04:48 10° E visible
29 Oct 9.9 07:00:11 10° SW 07:11:01 45° SSE 07:27:49 10° E visible
30 Oct 9.8 06:01:50 10° SSW 06:10:50 34° SE 06:24:38 10° E visible
31 Oct 9.8 05:04:20 10° S 05:11:13 22° SE 05:20:58 10° E visible
01 Nov 10.0 04:09:01 10° SE 04:12:02 12° SE 04:15:31 10° ESE visible
01 Nov 9.6 06:14:55 10° SW 06:24:04 43° SSE 06:38:57 10° E visible
